Regional Weather Roundup
Issued by NWS State College, PA

Home | Current Version | Previous Version | Text Only | Print | Product List | Glossary On
Versions: 1 2 3 4 5 6 7 8 9 10 11 12 13 14 15 16 17 18 19 20 21 22 23 24 25 26 27 28 29 30 31 32 33 34 35 36 37 38 39 40 41 42 43 44 45 46 47 48 49 50
000
ASUS41 KCTP 252210
RWRCTP

REGIONAL WEATHER ROUNDUP
NATIONAL WEATHER SERVICE STATE COLLEGE PA
600 PM EDT MON JUL 25 2016

Note: "fair" indicates few or no clouds below 12,000 feet with no
significant weather and/or obstructions to visibility.

* = STATION THAT DOES NOT REPORT PRECIPITATION /E.G. RAIN...SNOW...ETC/
    THUNDER OR FOG.

PAZ002>004-007>009-013>016-020>023-029>032-252300-
WESTERN PENNSYLVANIA

CITY           SKY/WX    TMP DP  RH WIND       PRES   REMARKS
ERIE           SUNNY     82  71  69 W9        29.90S
MEADVILLE      CLOUDY    80  67  64 W9        29.94F
FRANKLIN*      CLOUDY    82  70  65 NW6       29.96S
NEW CASTLE     FAIR      88  69  53 W7        29.93S
BEAVER COUNTY  SUNNY     88  66  48 W9        29.94R
BUTLER*        CLOUDY    88  70  55 W8        29.95F
PITTSBURGH INT CLOUDY    90  69  50 NW17      29.91F
PITTSBURGH     MOSUNNY   87  70  56 N9        29.91F
INDIANA*       MOSUNNY   81  75  83 SW8       29.97S
LATROBE        PTSUNNY   81  70  69 S7        29.94F
WASHINGTON CO* MOSUNNY   88  72  58 NW6       29.92F
$$

PAZ004>006-010>012-017>019-024>028-033>037-041-042-045-046-049>053-252300-
CENTRAL PENNSYLVANIA

CITY           SKY/WX    TMP DP  RH WIND       PRES   REMARKS
BRADFORD       PTSUNNY   78  69  73 W9        29.96S
DUBOIS         CLOUDY    79  71  76 NW3       29.95S
CLEARFIELD     CLOUDY    74  71  91 SW5       29.95F
JOHNSTOWN      CLOUDY    76  68  76 W6        30.00S
ALTOONA        CLOUDY    80  65  59 NW7       29.95R
STATE COLLEGE  MOSUNNY   75  70  83 CALM      29.94R
WILLIAMSPORT   LGT RAIN  74  69  85 CALM      29.89F
SELINSGROVE    HVY RAIN  72  72 100 N6        29.94F FOG
FT INDIANTOWN  LGT RAIN  79  68  69 N20G35    29.91R
CAPITAL CITY   MOSUNNY   94  73  50 SW12      29.83R HX 103
HARRISBURG     CLOUDY    92  74  55 SW9       29.83R HX 101
YORK           CLOUDY    85  78  80 SW3       29.86R HX  96
$$

PAZ038>040-043-044-047-048-054-055-060>062-067>071-252300-
EASTERN PENNSYLVANIA

CITY           SKY/WX    TMP DP  RH WIND       PRES   REMARKS
SCRANTON       LGT RAIN  73  71  93 SE3       29.92F
MOUNT POCONO   RAIN      68  66  93 N7        29.98F
ALLENTOWN      TSTM      73  72  94 W12G30    29.95R VSB 1/4
QUAKERTOWN*    CLOUDY    75  73  94 CALM      29.87F
READING        MOSUNNY   83  69  62 N23G33    29.90R
LANCASTER      MOSUNNY   93  72  50 SW13      29.85R HX 101
COATESVILLE    CLEAR     91  75  59 VRB5      29.88R HX 102
POTTSTOWN      CLOUDY    81  75  82 NE9       29.86R THUNDER
BLUE BELL      CLOUDY    79  75  89 NE5       29.84R
DOYLESTOWN     TSTM      73  72  96 CALM      29.85F
WILLOW GROVE   NOT AVBL
NORTH PHILA    CLOUDY    81  75  82 N23G32    29.86R
PHILADELPHIA   CLOUDY    96  73  47 SW16      29.83S HX 105
$$



USA.gov is the U.S. government's official web portal to all federal, state and local government web resources and services.